This demonstration page uses our WeatherBlox Daily Observations layout. Learn more.

Left ArrowRight Arrow

Hourly Observations for March 13, 2021

Temp ( °F °C ) Dew Point ( °F °C ) Humidity (%) Winds ( mph kmh ) Pressure ( in mb ) Visibility ( mi km ) Precip ( " mm )
12:51 am 00:51 Cloudy 46 7.8 29 -1.7 51 51 NW 15 24 29.92 1013 10 16 N/A
1:51 am 01:51 Mostly Cloudy 45 7.2 31 -0.6 58 58 WNW 14 22 29.91 1013 10 16 N/A
2:51 am 02:51 Mostly Cloudy 43 6.1 31 -0.6 63 63 NW 14 22 29.91 1013 10 16 N/A
3:51 am 03:51 Cloudy with Light Rain 40 4.4 35 1.7 83 83 NW 18 30 29.94 1014 10 16 0.00 0.00
4:16 am 04:16 Cloudy with Light Rain 39 3.9 36 2.2 89 89 NNW 13 20 30.07 1018 10 16 0.00 0.00
4:27 am 04:27 Cloudy with Light Rain 38 3.3 36 2.2 93 93 NW 12 19 30.08 1018 10 16 0.01 0.25
4:37 am 04:37 Cloudy with Light Rain 38 3.3 36 2.2 93 93 NNW 10 17 30.08 1018 10 16 0.01 0.25
4:51 am 04:51 Cloudy 38 3.3 36 2.2 93 93 N 13 20 29.95 1014 10 16 0.01 0.25
5:00 am 05:00 Cloudy 38 3.3 36 2.2 93 93 N 8 13 30.08 1018 10 16 N/A
5:51 am 05:51 Cloudy 40 4.4 37 2.8 89 89 SSW 9 15 29.98 1015 10 16 N/A
6:03 am 06:03 Cloudy with Light Rain 39 3.9 37 2.8 93 93 SSW 9 15 30.10 1019 8 13 0.00 0.00
6:39 am 06:39 Cloudy with Light Rain 39 3.9 37 2.8 93 93 S 3 6 30.11 1020 10 16 0.04 1.02
6:51 am 06:51 Cloudy 39 3.9 36 2.2 89 89 WNW 5 7 30.02 1017 10 16 0.04 1.02
7:41 am 07:41 Cloudy with Light Rain 37 2.8 35 1.7 93 93 W 6 9 30.15 1021 5 8 0.05 1.27
7:51 am 07:51 Cloudy with Light Rain 37 2.8 36 2.2 96 96 W 6 9 30.06 1018 6 10 0.05 1.27
8:17 am 08:17 Cloudy with Light Rain 38 3.3 36 2.2 93 93 NW 6 9 30.18 1022 10 16 0.02 0.51
8:31 am 08:31 Cloudy with Light Rain 36 2.2 35 1.7 97 97 NNW 5 7 30.19 1022 9 14 0.03 0.76
8:51 am 08:51 Cloudy with Light Rain 38 3.3 36 2.2 93 93 VRB 3 6 30.09 1019 10 16 0.04 1.02
9:13 am 09:13 Cloudy with Light Rain 38 3.3 36 2.2 93 93 N 7 11 30.20 1023 7 11 0.01 0.25
9:51 am 09:51 Cloudy 40 4.4 37 2.8 89 89 NW 5 7 30.11 1020 10 16 0.03 0.76
10:07 am 10:07 Cloudy with Light Rain 41 5 38 3.3 89 89 WSW 9 15 30.19 1022 10 16 0.00 0.00
10:09 am 10:09 Cloudy with Light Rain 41 5 38 3.3 89 89 WSW 7 11 30.19 1022 10 16 0.00 0.00
10:31 am 10:31 Cloudy 42 5.6 38 3.3 85 85 WNW 8 13 30.18 1022 10 16 0.00 0.00
10:38 am 10:38 Cloudy 43 6.1 38 3.3 82 82 W 15 24 30.17 1022 10 16 0.00 0.00
10:51 am 10:51 Cloudy with Light Rain 41 5 37 2.8 86 86 W 14 22 30.13 1020 10 16 0.00 0.00
11:12 am 11:12 Mostly Cloudy 43 6.1 38 3.3 82 82 NW 12 19 30.17 1022 10 16 0.00 0.00
11:51 am 11:51 Mostly Sunny 47 8.3 38 3.3 71 71 NW 15 24 30.10 1019 10 16 0.00 0.00
12:51 pm 12:51 Mostly Cloudy 49 9.4 37 2.8 64 64 NW 21 33 30.08 1019 10 16 N/A
1:51 pm 13:51 Partly Cloudy 51 10.6 34 1.1 52 52 WNW 23 37 30.07 1018 10 16 N/A
2:51 pm 14:51 Mostly Sunny 52 11.1 30 -1.1 43 43 WNW 21 33 30.06 1018 10 16 N/A
3:51 pm 15:51 Mostly Cloudy 46 7.8 34 1.1 63 63 NNW 18 30 30.09 1019 10 16 N/A
4:51 pm 16:51 Mostly Cloudy 48 8.9 33 0.6 56 56 NNW 22 35 30.08 1019 10 16 N/A
5:51 pm 17:51 Mostly Cloudy 46 7.8 32 undefined 58 58 NNW 21 33 30.08 1019 10 16 N/A
6:51 pm 18:51 Cloudy 45 7.2 34 1.1 66 66 NW 18 30 30.09 1019 10 16 N/A
7:51 pm 19:51 Mostly Clear 44 6.7 33 0.6 65 65 NNW 13 20 30.10 1019 10 16 N/A
8:51 pm 20:51 Mostly Clear 42 5.6 35 1.7 76 76 NNW 9 15 30.11 1020 10 16 0.00 0.00
9:51 pm 21:51 Mostly Clear 40 4.4 36 2.2 86 86 SSW 8 13 30.12 1020 10 16 N/A
10:51 pm 22:51 Cloudy 40 4.4 36 2.2 86 86 N N/A 30.12 1020 10 16 N/A
11:51 pm 23:51 Partly Cloudy 40 4.4 35 1.7 83 83 SSW 3 6 30.10 1019 10 16 0.00 0.00

Powered by AerisWeather